TimeCDT,TemperatureF,Dew PointF,Humidity,Sea Level PressureIn,VisibilityMPH,Wind Direction,Wind SpeedMPH,Gust SpeedMPH,PrecipitationIn,Events,Conditions,WindDirDegrees,DateUTC
12:15 AM,27.5,26.2,95,29.79,2.0,NNW,20.7,27.6,N/A,Snow,Light Snow,340,2013-03-11 05:15:00
12:35 AM,27.5,26.1,94,29.79,3.0,NNW,19.6,25.3,N/A,,Overcast,340,2013-03-11 05:35:00
12:55 AM,27.5,26.2,95,29.79,4.0,NNW,20.7,28.8,N/A,,Overcast,340,2013-03-11 05:55:00
1:15 AM,27.5,26.1,94,29.78,4.0,NNW,23.0,27.6,N/A,Snow,Light Snow,340,2013-03-11 06:15:00
1:35 AM,27.5,25.7,93,29.79,4.0,NNW,21.9,27.6,N/A,Snow,Light Snow,340,2013-03-11 06:35:00
1:55 AM,27.1,25.7,94,29.79,1.8,NNW,19.6,-,N/A,Snow,Light Snow,340,2013-03-11 06:55:00
2:15 AM,26.6,25.7,96,29.79,1.2,NNW,18.4,26.5,N/A,Snow,Light Snow,330,2013-03-11 07:15:00
2:35 AM,26.4,25.3,96,29.79,1.5,NNW,19.6,-,N/A,Snow,Light Snow,330,2013-03-11 07:35:00
2:55 AM,26.2,24.8,94,29.78,1.8,NNW,18.4,25.3,N/A,Snow,Light Snow,330,2013-03-11 07:55:00
3:15 AM,26.1,24.8,95,29.77,1.8,NNW,20.7,26.5,N/A,Snow,Light Snow,330,2013-03-11 08:15:00
3:35 AM,25.7,24.6,96,29.77,2.0,NNW,23.0,27.6,N/A,Snow,Light Snow,330,2013-03-11 08:35:00
3:55 AM,25.5,23.9,94,29.77,2.5,NNW,17.3,26.5,N/A,Snow,Light Snow,330,2013-03-11 08:55:00
4:15 AM,25.5,23.9,94,29.76,3.0,NNW,16.1,26.5,N/A,Snow,Light Snow,330,2013-03-11 09:15:00
4:35 AM,25.3,23.9,94,29.76,2.5,NNW,17.3,-,N/A,Snow,Light Snow,340,2013-03-11 09:35:00
4:55 AM,25.3,23.9,94,29.76,2.5,NNW,19.6,-,N/A,Snow,Light Snow,330,2013-03-11 09:55:00
5:15 AM,25.2,23.9,95,29.76,1.8,NNW,19.6,26.5,N/A,Snow,Light Snow,330,2013-03-11 10:15:00
5:35 AM,25.2,23.9,95,29.77,1.0,NNW,18.4,-,N/A,Snow,Snow,330,2013-03-11 10:35:00
5:55 AM,25.2,23.9,95,29.77,1.8,NNW,19.6,24.2,N/A,Snow,Light Snow,330,2013-03-11 10:55:00
6:15 AM,25.2,23.9,95,29.77,1.2,NNW,19.6,-,N/A,Snow,Snow,330,2013-03-11 11:15:00
6:35 AM,25.2,23.9,95,29.78,1.2,NNW,18.4,24.2,N/A,Snow,Light Snow,330,2013-03-11 11:35:00
6:55 AM,25.2,23.7,94,29.79,2.0,NNW,17.3,25.3,N/A,Snow,Light Snow,330,2013-03-11 11:55:00
7:15 AM,24.8,23.4,94,29.79,2.0,NNW,20.7,26.5,N/A,Snow,Light Snow,330,2013-03-11 12:15:00
7:35 AM,24.8,23.4,94,29.79,3.0,NNW,18.4,24.2,N/A,Snow,Light Snow,330,2013-03-11 12:35:00
7:55 AM,24.8,22.6,91,29.80,7.0,NNW,18.4,-,N/A,,Overcast,330,2013-03-11 12:55:00
8:15 AM,24.8,22.5,91,29.80,10.0,NNW,16.1,-,N/A,,Overcast,330,2013-03-11 13:15:00
8:35 AM,24.6,22.1,90,29.81,10.0,NNW,17.3,-,N/A,,Overcast,330,2013-03-11 13:35:00
8:55 AM,24.8,22.1,89,29.82,10.0,NW,15.0,-,N/A,,Overcast,320,2013-03-11 13:55:00
9:15 AM,24.8,22.1,89,29.82,10.0,NW,16.1,-,N/A,,Overcast,320,2013-03-11 14:15:00
9:35 AM,24.8,22.1,89,29.83,10.0,NW,16.1,24.2,N/A,,Overcast,320,2013-03-11 14:35:00
9:55 AM,25.2,22.1,88,29.82,10.0,NW,15.0,-,N/A,,Overcast,320,2013-03-11 14:55:00
10:15 AM,25.3,22.1,87,29.82,10.0,NNW,16.1,19.6,N/A,,Overcast,330,2013-03-11 15:15:00
10:35 AM,25.5,22.3,88,29.82,10.0,NW,13.8,19.6,N/A,,Overcast,320,2013-03-11 15:35:00
10:55 AM,25.3,22.1,87,29.83,7.0,NW,17.3,23.0,N/A,,Overcast,320,2013-03-11 15:55:00
11:15 AM,25.5,22.1,87,29.83,10.0,NW,13.8,23.0,N/A,,Overcast,310,2013-03-11 16:15:00
11:35 AM,25.7,22.5,88,29.83,10.0,NW,15.0,19.6,N/A,,Overcast,310,2013-03-11 16:35:00
11:55 AM,26.2,22.6,86,29.83,10.0,NW,16.1,-,N/A,,Overcast,310,2013-03-11 16:55:00
12:15 PM,26.6,22.8,86,29.83,10.0,NW,15.0,-,N/A,,Overcast,310,2013-03-11 17:15:00
12:35 PM,27.1,22.8,84,29.83,10.0,NW,15.0,20.7,N/A,,Overcast,310,2013-03-11 17:35:00
12:55 PM,27.5,23.2,84,29.83,10.0,NW,16.1,-,N/A,,Overcast,310,2013-03-11 17:55:00
1:15 PM,26.6,22.1,83,29.83,10.0,WNW,17.3,-,N/A,,Overcast,300,2013-03-11 18:15:00
1:35 PM,26.2,21.7,83,29.84,10.0,WNW,19.6,24.2,N/A,,Overcast,300,2013-03-11 18:35:00
1:55 PM,26.6,21.9,82,29.83,10.0,WNW,18.4,23.0,N/A,,Overcast,290,2013-03-11 18:55:00
2:15 PM,26.6,21.6,81,29.83,10.0,WNW,16.1,24.2,N/A,,Overcast,300,2013-03-11 19:15:00
2:35 PM,26.6,21.4,81,29.83,10.0,WNW,15.0,-,N/A,,Overcast,300,2013-03-11 19:35:00
2:55 PM,26.6,21.6,81,29.83,10.0,WNW,19.6,-,N/A,,Overcast,290,2013-03-11 19:55:00
3:15 PM,26.8,21.7,81,29.83,10.0,WNW,17.3,21.9,N/A,,Overcast,290,2013-03-11 20:15:00
3:35 PM,26.6,21.6,81,29.83,10.0,WNW,18.4,21.9,N/A,,Overcast,290,2013-03-11 20:35:00
3:55 PM,26.6,21.4,81,29.84,10.0,WNW,15.0,-,N/A,,Overcast,300,2013-03-11 20:55:00
4:15 PM,26.6,21.6,81,29.85,10.0,WNW,20.7,-,N/A,,Overcast,290,2013-03-11 21:15:00
4:35 PM,26.6,21.7,82,29.86,10.0,WNW,19.6,23.0,N/A,,Overcast,290,2013-03-11 21:35:00
4:55 PM,26.6,21.4,81,29.86,10.0,WNW,16.1,20.7,N/A,,Overcast,300,2013-03-11 21:55:00
5:15 PM,25.7,20.3,80,29.86,10.0,WNW,15.0,-,N/A,,Mostly Cloudy,300,2013-03-11 22:15:00
5:35 PM,25.3,19.8,79,29.86,10.0,WNW,13.8,19.6,N/A,,Mostly Cloudy,300,2013-03-11 22:35:00
6:15 PM,24.6,19.4,81,29.86,10.0,WNW,15.0,-,N/A,,Scattered Clouds,290,2013-03-11 23:15:00
6:35 PM,25.3,20.3,81,29.86,10.0,WNW,12.7,18.4,N/A,,Mostly Cloudy,290,2013-03-11 23:35:00
6:55 PM,24.1,19.6,83,29.87,10.0,WNW,12.7,-,N/A,,Scattered Clouds,290,2013-03-11 23:55:00
7:15 PM,22.5,18.9,86,29.89,10.0,West,11.5,-,N/A,,Clear,280,2013-03-12 00:15:00
7:35 PM,23.4,19.8,86,29.90,10.0,West,12.7,-,N/A,,Mostly Cloudy,280,2013-03-12 00:35:00
7:55 PM,24.4,20.3,84,29.91,10.0,West,15.0,-,N/A,,Overcast,280,2013-03-12 00:55:00
8:15 PM,24.6,21.2,87,29.91,10.0,West,9.2,-,N/A,,Overcast,270,2013-03-12 01:15:00
8:35 PM,25.2,21.4,86,29.90,10.0,West,9.2,-,N/A,,Overcast,260,2013-03-12 01:35:00
8:55 PM,25.5,21.7,86,29.91,10.0,West,10.4,-,N/A,,Overcast,270,2013-03-12 01:55:00
9:15 PM,25.5,21.7,86,29.93,10.0,West,12.7,-,N/A,,Overcast,270,2013-03-12 02:15:00
9:35 PM,24.8,21.2,86,29.92,10.0,West,11.5,-,N/A,,Overcast,270,2013-03-12 02:35:00
9:55 PM,25.5,21.6,85,29.93,10.0,WNW,10.4,-,N/A,,Overcast,290,2013-03-12 02:55:00
10:15 PM,25.2,20.8,84,29.93,10.0,West,11.5,-,N/A,,Overcast,280,2013-03-12 03:15:00
10:35 PM,22.5,19.0,87,29.94,10.0,West,11.5,-,N/A,,Mostly Cloudy,270,2013-03-12 03:35:00
10:55 PM,22.8,19.4,87,29.94,10.0,West,10.4,-,N/A,,Mostly Cloudy,260,2013-03-12 03:55:00
11:15 PM,20.3,17.2,88,29.94,10.0,West,9.2,-,N/A,,Scattered Clouds,260,2013-03-12 04:15:00
11:35 PM,18.1,15.4,89,29.94,10.0,West,9.2,-,N/A,,Clear,260,2013-03-12 04:35:00
11:55 PM,17.6,14.7,88,29.94,10.0,West,10.4,-,N/A,,Clear,270,2013-03-12 04:55:00